Location: Colebrook
(42.0017°N, 73.0973°W)
Time: 10:15:58
(UTC-04:00)

Amateur Radio Satellites - All Passes

Search period start: 05 May 2016 09:45
Search period end: 06 May 2016 09:45
Location: Colebrook, 42.0017°N, 73.0973°W

Satellite Date Start Highest point End Downlink Frequencies (MHz)
Time Altitude Azimuth
PRISM 05 May 09:46:05 09:47:05 11° 270° (W) 09:48:05 437.425
CUBEBUG 2 05 May 09:49:14 09:53:32 77° 101° (E) 09:57:43 437.445
AAUSAT CUBESAT 2 05 May 09:53:47 09:57:55 69° 285° (WNW) 10:02:03 437.432
ZACube-1 05 May 10:00:36 10:04:40 46° 99° (E) 10:08:37 437.345
ANTELSAT 05 May 10:04:16 10:08:46 51° 73° (ENE) 10:13:12 437.575/2403.000
CANX-2 05 May 10:09:15 10:12:14 19° 294° (WNW) 10:15:14 2200.000
NANOSAT C BR1 05 May 10:10:55 10:12:23 12° 61° (ENE) 10:13:51 145.865
PHONESAT 2.4 05 May 10:14:25 10:17:29 50° 168° (SSE) 10:20:33 2401.200-2431.200
HO-68 05 May 10:16:42 10:23:18 42° 296° (WNW) 10:29:54 435.675
ISS 05 May 10:25:51 10:27:56 16° 6° (N) 10:30:02 145.825
Oscar 11 05 May 10:37:14 10:41:28 58° 286° (WNW) 10:45:42 145.826/435.025
HUMSAT D 05 May 10:40:18 10:43:57 31° 96° (E) 10:47:35 437.325/437.525
CUTE 1.7 + AOD 2 05 May 10:43:43 10:44:14 10° 299° (WNW) 10:44:45 437.475
DELFI C3 05 May 10:44:54 10:48:55 86° 102° (ESE) 10:52:55 145.870
AO-85 05 May 10:49:09 10:51:15 12° 105° (ESE) 10:53:22 145.980
FUNcube-1 05 May 10:53:01 10:57:02 46° 287° (WNW) 11:00:59 145.935
UNISAT 6 05 May 10:58:52 11:03:16 42° 261° (W) 11:07:37 437.425
DUCHIFAT 1 05 May 10:59:11 11:03:04 35° 70° (ENE) 11:06:57 145.980
QB50P2 05 May 11:03:15 11:07:20 45° 72° (ENE) 11:11:26 145.880/145.840
COMPASS 1 05 May 11:03:34 11:04:45 11° 298° (WNW) 11:05:57 437.405
AIST 1 05 May 11:04:56 11:09:11 45° 78° (ENE) 11:13:24
POLYITAN 1 05 May 11:05:25 11:09:32 46° 72° (ENE) 11:13:39 437.675
POPSAT HIP 1 05 May 11:07:15 11:11:22 46° 72° (ENE) 11:15:29 437.405
QB50P1 05 May 11:10:10 11:14:18 51° 73° (ENE) 11:18:28 145.935-145.965
UWE-3 05 May 11:13:19 11:16:20 19° 294° (WNW) 11:19:19 435.000/436.395/437.385
TIGRISAT 05 May 11:15:49 11:19:54 30° 264° (W) 11:23:56 435.000
50 SAT 05 May 11:27:23 11:29:23 14° 92° (E) 11:31:22 437.505
CUBEBUG 2 05 May 11:28:44 11:29:30 10° 300° (WNW) 11:30:16 437.445
BUGSAT 1 05 May 11:29:20 11:33:13 36° 71° (ENE) 11:37:09 437.445
CUBEBUG 1 05 May 11:30:19 11:33:01 16° 92° (E) 11:35:41 437.445
ESTCUBE 1 05 May 11:30:32 11:34:08 23° 94° (E) 11:37:43 437.505/2401.250
GONETS M04 05 May 11:34:55 11:43:43 72° 80° (E) 11:52:23
ZACube-1 05 May 11:38:03 11:40:34 16° 296° (WNW) 11:43:04 437.345
Cosmos 2499 05 May 11:39:26 11:46:51 45° 75° (ENE) 11:54:46 435.465 / 435.565
ANTELSAT 05 May 11:42:53 11:45:45 16° 268° (W) 11:48:34 437.575/2403.000
NANOSAT C BR1 05 May 11:43:16 11:47:32 71° 258° (WSW) 11:51:49 145.865
JAS-2 05 May 11:47:28 11:52:19 24° 58° (ENE) 11:57:38 435.910
PHONESAT 2.4 05 May 11:51:05 11:54:13 64° 185° (S) 11:57:20 2401.200-2431.200
DX 1 05 May 11:51:37 11:55:08 23° 95° (E) 11:58:36 434.975-435.025
UKube-1 05 May 11:53:07 11:56:16 19° 94° (E) 11:59:24 .
ISS 05 May 12:02:03 12:05:06 35° 26° (NNE) 12:08:08 145.825
VELOX 1 05 May 12:04:02 12:08:10 35° 98° (E) 12:12:16 145.980
HUMSAT D 05 May 12:16:19 12:19:26 21° 293° (WNW) 12:22:31 437.325/437.525
SPROUT 05 May 12:17:45 12:20:50 19° 93° (E) 12:23:54 437.525
Oscar 19 05 May 12:24:01 12:28:04 24° 64° (ENE) 12:32:08 437.125/150
AO-85 05 May 12:25:31 12:31:00 84° 122° (ESE) 12:36:26 145.980
DUCHIFAT 1 05 May 12:35:39 12:38:51 20° 266° (W) 12:42:04 145.980
AISAT 05 May 12:36:19 12:40:50 85° 102° (ESE) 12:45:17 437.250
QB50P2 05 May 12:40:41 12:43:22 16° 268° (W) 12:46:03 145.880/145.840
Gurwin Techsat 1B 05 May 12:42:34 12:45:34 15° 59° (ENE) 12:48:33 435.225
POLYITAN 1 05 May 12:42:56 12:45:35 16° 268° (W) 12:48:13 437.675
AIST 1 05 May 12:43:44 12:46:22 16° 275° (W) 12:48:59
POPSAT HIP 1 05 May 12:44:48 12:47:24 16° 268° (W) 12:49:59 437.405
QB50P1 05 May 12:48:04 12:50:23 14° 269° (W) 12:52:42 145.935-145.965
50 SAT 05 May 12:59:56 13:03:19 37° 288° (WNW) 13:06:43 437.505
CUBEBUG 1 05 May 13:05:17 13:09:34 49° 288° (WNW) 13:13:50 437.445
BUGSAT 1 05 May 13:05:37 13:08:43 20° 267° (W) 13:11:50 437.445
ESTCUBE 1 05 May 13:06:53 13:11:01 35° 290° (WNW) 13:15:08 437.505/2401.250
DX 1 05 May 13:27:25 13:31:22 33° 291° (WNW) 13:35:16 434.975-435.025
PHONESAT 2.4 05 May 13:28:03 13:30:49 28° 201° (SSW) 13:33:36 2401.200-2431.200
UKube-1 05 May 13:28:25 13:32:27 38° 290° (WNW) 13:36:27 .
JAS-2 05 May 13:30:40 13:36:40 64° 260° (W) 13:43:33 435.910
Cosmos 2499 05 May 13:32:45 13:39:49 39° 272° (W) 13:47:22 435.465 / 435.565
GONETS M04 05 May 13:33:06 13:39:37 24° 280° (W) 13:46:06
ISS 05 May 13:38:34 13:41:31 31° 223° (SW) 13:44:27 145.825
VELOX 1 05 May 13:40:57 13:44:25 23° 294° (WNW) 13:47:53 145.980
O/OREOS (USA 219) 05 May 13:42:41 13:46:20 24° 102° (ESE) 13:49:59 437.305
ITAMSAT 1 05 May 13:48:44 13:52:54 25° 64° (ENE) 13:57:04 435.822/435.867
SPROUT 05 May 13:52:57 13:56:55 37° 289° (WNW) 14:00:52 437.525
SO-50 05 May 13:56:09 13:59:15 17° 38° (NE) 14:02:17 436.795
ITUPSAT 1 05 May 13:58:42 14:00:59 13° 90° (E) 14:03:14 437.325
Oscar 19 05 May 14:02:09 14:07:05 45° 261° (W) 14:12:05 437.125/150
SWISSCUBE 05 May 14:05:44 14:08:59 18° 92° (E) 14:12:12 437.505
AO-85 05 May 14:08:10 14:12:09 20° 320° (NW) 14:16:05 145.980
AO-7 05 May 14:08:16 14:14:56 28° 55° (NE) 14:21:38 29.400- 29.500
AISAT 05 May 14:15:39 14:16:37 11° 300° (WNW) 14:17:34 437.250
PCSat 05 May 14:15:52 14:19:55 22° 107° (ESE) 14:24:00 145.827
TISAT 1 05 May 14:15:53 14:20:06 71° 285° (WNW) 14:24:16 437.305
Gurwin Techsat 1B 05 May 14:19:32 14:24:50 77° 256° (WSW) 14:30:11 435.225
CUSAT 1 05 May 14:31:18 14:34:33 29° 88° (E) 14:38:40 437.405
BEESAT 05 May 14:37:45 14:42:05 34° 97° (E) 14:46:24 436.000
O/OREOS (USA 219) 05 May 15:21:18 15:25:31 35° 299° (WNW) 15:29:47 437.305
ITAMSAT 1 05 May 15:27:15 15:32:08 42° 261° (W) 15:37:02 435.822/435.867
ITUPSAT 1 05 May 15:34:31 15:39:15 66° 287° (WNW) 15:44:00 437.325
SO-50 05 May 15:35:38 15:40:23 83° 240° (WSW) 15:44:57 436.795
DANDE 05 May 15:40:56 15:43:55 66° 97° (E) 15:47:47 436.750
SWISSCUBE 05 May 15:42:26 15:47:02 49° 289° (WNW) 15:51:37 437.505
KKS-1 05 May 15:54:48 15:58:36 27° 96° (E) 16:02:22 437.445
PCSat 05 May 15:57:36 16:02:54 54° 304° (NW) 16:08:15 145.827
AO-7 05 May 15:58:46 16:07:01 72° 255° (WSW) 16:15:20 29.400- 29.500
STARS 05 May 16:03:57 16:06:54 17° 93° (E) 16:09:49 437.465
CUSAT 1 05 May 16:13:47 16:16:49 21° 296° (WNW) 16:20:30 437.405
BEESAT 05 May 16:15:47 16:19:44 26° 294° (WNW) 16:23:40 436.000
MOZHAYETS 4 05 May 16:19:22 16:23:30 33° 96° (E) 16:27:38
HORYU 2 05 May 16:19:59 16:24:16 48° 72° (ENE) 16:28:34 437.375
NOAA 18 05 May 16:20:16 16:21:39 11° 55° (NE) 16:23:01 137.9125
Cosmos 2491 05 May 16:44:33 16:52:17 32° 69° (ENE) 16:59:54 435.465 / 435.565
YUBILEINY 05 May 17:00:21 17:04:20 14° 74° (ENE) 17:08:17 435.215
CUTE-I 05 May 17:18:24 17:22:41 25° 64° (ENE) 17:26:57 437.470
KKS-1 05 May 17:31:16 17:35:08 29° 292° (WNW) 17:38:57 437.445
BEESAT 3 05 May 17:32:48 17:36:27 37° 116° (ESE) 17:40:07 437.485
STARS 05 May 17:39:17 17:43:28 43° 289° (WNW) 17:47:37 437.465
PCSat 05 May 17:45:43 17:47:34 12° 326° (NW) 17:49:26 145.827
BEESAT 2 05 May 17:46:16 17:49:46 30° 115° (ESE) 17:53:18 435.950
BRITE-PL 05 May 17:47:47 17:52:24 40° 69° (ENE) 17:57:23 437.365/2234.400
NOAA 15 05 May 17:49:28 17:54:41 70° 73° (ENE) 17:59:58 137.62
LilacSat-2 05 May 17:54:54 17:58:31 38° 72° (ENE) 18:02:08 437.200
NOAA 18 05 May 17:55:51 18:01:20 72° 73° (ENE) 18:06:50 137.9125
MOZHAYETS 4 05 May 17:56:48 18:00:31 25° 293° (WNW) 18:04:14
AO-7 05 May 17:57:47 18:01:10 13° 273° (W) 18:04:33 29.400- 29.500
HORYU 2 05 May 17:58:17 18:01:04 16° 268° (W) 18:03:53 437.375
Cubesat XI-IV 05 May 18:02:36 18:07:51 61° 72° (ENE) 18:13:06 437.490
CUBESAT XI-V 05 May 18:12:30 18:17:09 58° 100° (E) 18:21:47 437.345
M-CUBED/EXP-1 PRIME 05 May 18:22:28 18:26:56 44° 66° (ENE) 18:31:19 437.505
DOVE 4 05 May 18:24:39 18:28:50 25° 65° (ENE) 18:33:06 437.250
Cosmos 2504 05 May 18:34:29 18:35:58 11° 75° (ENE) 18:37:27 435.465 / 435.565
AUBIESAT-1 05 May 18:38:19 18:42:50 53° 68° (ENE) 18:47:14 437.475
Cosmos 2491 05 May 18:40:59 18:49:33 58° 270° (W) 18:58:02 435.465 / 435.565
GOMX 1 05 May 18:43:08 18:48:12 68° 74° (ENE) 18:53:35 467.674
CINEMA 3 05 May 18:47:08 18:49:39 14° 61° (ENE) 18:52:09 145.822/145.860
YUBILEINY 05 May 18:50:50 18:59:31 76° 94° (E) 19:08:13 435.215
CUTE-I 05 May 18:57:25 19:02:28 44° 261° (W) 19:07:32 437.470
HO-68 05 May 18:58:25 19:04:31 32° 61° (ENE) 19:10:38 435.675
STRAND 1 05 May 19:08:51 19:12:33 20° 93° (E) 19:16:13 437.568
BEESAT 3 05 May 19:11:08 19:14:16 22° 314° (NW) 19:17:25 437.485
AO-85 05 May 19:18:33 19:21:15 14° 34° (NE) 19:23:50 145.980
BEESAT 2 05 May 19:24:14 19:27:37 26° 313° (NW) 19:31:02 435.950
CANX-2 05 May 19:25:59 19:29:36 29° 69° (ENE) 19:33:13 2200.000
BRITE-PL 05 May 19:27:00 19:31:02 25° 268° (W) 19:35:20 437.365/2234.400
LilacSat-2 05 May 19:30:42 19:32:59 15° 268° (W) 19:35:18 437.200
NOAA 15 05 May 19:32:04 19:34:58 15° 270° (W) 19:37:54 137.62
NOAA 18 05 May 19:39:24 19:42:31 15° 269° (W) 19:45:38 137.9125
AIST 2 05 May 19:43:27 19:47:17 38° 116° (ESE) 19:51:08 435.215
Cubesat XI-IV 05 May 19:44:53 19:48:19 17° 269° (W) 19:51:47 437.490
CUBESAT XI-V 05 May 19:51:12 19:54:03 16° 297° (WNW) 19:56:54 437.345
CUTE 1.7 + AOD 2 05 May 19:57:34 20:01:41 56° 74° (ENE) 20:05:49 437.475
RS-15 05 May 19:57:56 20:06:44 28° 101° (ESE) 20:15:51 29.354- 29.394
M-CUBED/EXP-1 PRIME 05 May 19:58:01 20:01:35 21° 261° (W) 20:05:06 437.505
Oscar 11 05 May 19:59:23 20:00:40 11° 61° (ENE) 20:01:57 145.826/435.025
DOVE 4 05 May 20:01:19 20:06:13 44° 263° (W) 20:11:18 437.250
FUNcube-1 05 May 20:14:28 20:16:50 14° 63° (ENE) 20:19:09 145.935
AUBIESAT-1 05 May 20:14:29 20:17:31 17° 263° (W) 20:20:30 437.475
COMPASS 1 05 May 20:16:34 20:20:32 47° 73° (ENE) 20:24:31 437.405
SEEDS 05 May 20:18:58 20:23:06 72° 76° (ENE) 20:27:16 437.485
Cosmos 2504 05 May 20:20:44 20:27:57 75° 94° (E) 20:35:06 435.465 / 435.565
CINEMA 3 05 May 20:21:06 20:26:07 79° 258° (WSW) 20:31:09 145.822/145.860
GOMX 1 05 May 20:23:52 20:26:50 15° 272° (W) 20:29:53 467.674
UWE-3 05 May 20:33:08 20:37:16 34° 70° (ENE) 20:41:21 435.000/436.395/437.385
AAUSAT CUBESAT 2 05 May 20:44:01 20:48:07 80° 77° (ENE) 20:52:15 437.432
HO-68 05 May 20:44:57 20:51:54 53° 259° (W) 20:58:54 435.675
CUBEBUG 2 05 May 20:46:52 20:51:33 67° 75° (ENE) 20:56:10 437.445
STRAND 1 05 May 20:47:03 20:51:59 50° 289° (WNW) 20:56:55 437.568
YUBILEINY 05 May 20:50:31 20:57:14 24° 295° (WNW) 21:03:59 435.215
ZACube-1 05 May 20:56:22 21:00:34 39° 71° (ENE) 21:04:42 437.345
AO-85 05 May 20:57:49 21:02:39 78° 57° (ENE) 21:07:00 145.980
CANX-2 05 May 21:02:01 21:05:26 24° 265° (W) 21:08:52 2200.000
AIST 2 05 May 21:22:32 21:25:53 23° 314° (NW) 21:29:15 435.215
PRISM 05 May 21:23:33 21:27:45 85° 281° (W) 21:31:56 437.425
DELFI C3 05 May 21:31:07 21:34:55 50° 74° (ENE) 21:38:45 145.870
Oscar 11 05 May 21:31:53 21:36:11 74° 257° (WSW) 21:40:31 145.826/435.025
HUMSAT D 05 May 21:32:10 21:35:33 24° 68° (ENE) 21:38:54 437.325/437.525
CUTE 1.7 + AOD 2 05 May 21:36:08 21:37:53 12° 270° (W) 21:39:38 437.475
FUNcube-1 05 May 21:48:08 21:52:36 60° 260° (W) 21:56:58 145.935
COMPASS 1 05 May 21:54:09 21:56:22 14° 269° (W) 21:58:34 437.405
RS-15 05 May 22:06:23 22:17:43 82° 304° (NW) 22:29:47 29.354- 29.394
UWE-3 05 May 22:10:00 22:13:45 24° 266° (W) 22:17:27 435.000/436.395/437.385
Cosmos 2504 05 May 22:17:10 22:22:07 20° 295° (WNW) 22:27:06 435.465 / 435.565
CUBEBUG 2 05 May 22:26:28 22:28:34 13° 270° (W) 22:30:40 437.445
CUBEBUG 1 05 May 22:27:14 22:29:40 15° 63° (ENE) 22:32:08 437.445
ESTCUBE 1 05 May 22:30:41 22:34:09 23° 66° (ENE) 22:37:39 437.505/2401.250
ZACube-1 05 May 22:33:41 22:36:58 20° 267° (W) 22:40:14 437.345
AO-85 05 May 22:40:59 22:42:16 11° 255° (WSW) 22:43:32 145.980
GONETS M04 05 May 22:44:28 22:49:13 16° 75° (ENE) 22:53:57
DX 1 05 May 22:47:42 22:51:03 22° 66° (ENE) 22:54:25 434.975-435.025
UKube-1 05 May 22:48:24 22:51:22 18° 64° (ENE) 22:54:21 .
UNISAT 6 05 May 22:50:15 22:54:15 36° 98° (E) 22:58:11 437.425
VELOX 1 05 May 23:01:40 23:05:39 33° 69° (ENE) 23:09:40 145.980
PCSat 05 May 23:02:17 23:06:33 23° 45° (NE) 23:10:48 145.827
TIGRISAT 05 May 23:06:27 23:10:40 52° 100° (E) 23:14:49 435.000
HUMSAT D 05 May 23:07:24 23:11:04 29° 264° (W) 23:14:43 437.325/437.525
DELFI C3 05 May 23:08:30 23:10:06 12° 270° (W) 23:11:41 145.870
SPROUT 05 May 23:12:15 23:15:00 17° 64° (ENE) 23:17:45 437.525
NANOSAT C BR1 05 May 23:28:23 23:31:14 17° 93° (E) 23:34:03 145.865
ANTELSAT 05 May 23:32:11 23:36:30 76° 284° (WNW) 23:40:45 437.575/2403.000
AISAT 05 May 23:33:43 23:38:09 78° 75° (ENE) 23:42:39 437.250
AIST 1 05 May 23:35:01 23:38:35 26° 89° (E) 23:42:12
50 SAT 05 May 23:38:21 23:41:59 81° 256° (WSW) 23:45:39 437.505
O/OREOS (USA 219) 05 May 23:51:21 23:55:45 47° 63° (ENE) 00:00:04 437.305
CUBEBUG 1 06 May 00:01:10 00:05:28 57° 259° (W) 00:09:51 437.445
ESTCUBE 1 06 May 00:06:38 00:10:45 36° 263° (W) 00:14:54 437.505/2401.250
Cosmos 2499 06 May 00:18:03 00:24:04 32° 86° (E) 00:30:10 435.465 / 435.565
DUCHIFAT 1 06 May 00:18:09 00:22:19 60° 101° (E) 00:26:27 145.980
RS-15 06 May 00:22:15 00:32:19 32° 332° (NNW) 00:42:51 29.354- 29.394
UKube-1 06 May 00:22:59 00:27:06 42° 261° (W) 00:31:15 .
DX 1 06 May 00:23:01 00:27:01 35° 262° (W) 00:31:05 434.975-435.025
QB50P2 06 May 00:23:17 00:27:33 81° 104° (ESE) 00:31:46 145.880/145.840
POLYITAN 1 06 May 00:25:30 00:29:45 83° 103° (ESE) 00:33:57 437.675
POPSAT HIP 1 06 May 00:27:10 00:31:25 84° 103° (ESE) 00:35:38 437.405
UNISAT 6 06 May 00:27:34 00:30:43 20° 294° (WNW) 00:33:51 437.425
QB50P1 06 May 00:30:03 00:34:19 89° 266° (W) 00:38:31 145.935-145.965
DANDE 06 May 00:35:04 00:38:11 13° 63° (ENE) 00:41:31 436.750
GONETS M04 06 May 00:35:43 00:44:33 82° 96° (E) 00:53:25
VELOX 1 06 May 00:38:38 00:42:10 23° 266° (W) 00:45:44 145.980
JAS-2 06 May 00:39:47 00:45:52 24° 89° (E) 00:51:49 435.910
TIGRISAT 06 May 00:44:31 00:46:55 15° 297° (WNW) 00:49:18 435.000
PCSat 06 May 00:45:01 00:50:23 63° 245° (WSW) 00:55:43 145.827
BUGSAT 1 06 May 00:45:46 00:49:55 58° 101° (E) 00:53:58 437.445
SPROUT 06 May 00:46:24 00:50:34 47° 261° (W) 00:54:46 437.525
CUSAT 1 06 May 01:01:46 01:08:42 39° 72° (ENE) 01:16:08 437.405
NANOSAT C BR1 06 May 01:03:11 01:07:08 39° 289° (WNW) 01:11:03 145.865
ITUPSAT 1 06 May 01:05:42 01:08:49 18° 63° (ENE) 01:11:56 437.325
TISAT 1 06 May 01:07:26 01:11:41 88° 71° (ENE) 01:15:58 437.305
AIST 1 06 May 01:12:27 01:16:06 26° 286° (WNW) 01:19:48
SWISSCUBE 06 May 01:12:35 01:16:15 23° 65° (ENE) 01:19:55 437.505
O/OREOS (USA 219) 06 May 01:31:53 01:34:43 17° 260° (W) 01:37:32 437.305
BEESAT 06 May 01:44:25 01:48:51 41° 70° (ENE) 01:53:19 436.000
BEESAT 3 06 May 01:49:47 01:53:12 27° 48° (NE) 01:56:36 437.485
DUCHIFAT 1 06 May 01:55:34 01:57:31 13° 298° (WNW) 01:59:26 145.980
BEESAT 2 06 May 02:03:54 02:07:11 24° 46° (NE) 02:10:26 435.950
Cosmos 2499 06 May 02:10:15 02:16:55 44° 285° (WNW) 02:23:43 435.465 / 435.565
Oscar 19 06 May 02:12:58 02:18:09 62° 101° (E) 02:23:16 437.125/150
DANDE 06 May 02:15:02 02:21:56 66° 78° (ENE) 02:30:07 436.750
BUGSAT 1 06 May 02:22:51 02:24:47 13° 298° (WNW) 02:26:43 437.445
JAS-2 06 May 02:23:37 02:31:28 75° 287° (WNW) 02:39:10 435.910
Gurwin Techsat 1B 06 May 02:35:29 02:40:31 41° 98° (E) 02:45:30 435.225
GONETS M04 06 May 02:35:52 02:42:26 23° 297° (WNW) 02:49:03
RS-15 06 May 02:40:48 02:50:03 24° 8° (N) 02:59:30 29.354- 29.394
ITUPSAT 1 06 May 02:41:34 02:46:13 54° 260° (W) 02:50:54 437.325
CUSAT 1 06 May 02:43:45 02:50:55 48° 268° (W) 02:58:33 437.405
SWISSCUBE 06 May 02:49:20 02:53:47 40° 261° (W) 02:58:16 437.505
KKS-1 06 May 02:53:13 02:56:59 27° 67° (ENE) 03:00:45 437.445
STARS 06 May 03:01:14 03:04:11 18° 64° (ENE) 03:07:08 437.465
MOZHAYETS 4 06 May 03:21:36 03:25:40 33° 69° (ENE) 03:29:45
BEESAT 06 May 03:23:11 03:26:47 21° 266° (W) 03:30:25 436.000
BEESAT 3 06 May 03:27:27 03:30:52 28° 245° (WSW) 03:34:16 437.485
ITAMSAT 1 06 May 03:39:12 03:44:22 66° 102° (ESE) 03:49:32 435.822/435.867
BEESAT 2 06 May 03:41:28 03:45:06 35° 244° (WSW) 03:48:43 435.950
Oscar 19 06 May 03:53:31 03:56:57 18° 299° (WNW) 04:00:23 437.125/150
DANDE 06 May 03:58:44 04:04:28 27° 272° (W) 04:10:54 436.750
AO-7 06 May 04:00:04 04:07:44 39° 98° (E) 04:15:21 29.400- 29.500
AIST 2 06 May 04:04:21 04:08:03 30° 49° (NE) 04:11:44 435.215
JAS-2 06 May 04:10:29 04:15:13 18° 306° (NW) 04:19:57 435.910
Gurwin Techsat 1B 06 May 04:15:52 04:20:14 27° 295° (WNW) 04:24:35 435.225
KKS-1 06 May 04:29:31 04:33:26 30° 263° (W) 04:37:24 437.445
STARS 06 May 04:35:54 04:40:10 47° 260° (W) 04:44:29 437.465
RS-15 06 May 04:55:15 05:06:52 46° 40° (NE) 05:18:32 29.354- 29.394
MOZHAYETS 4 06 May 04:59:10 05:02:52 24° 266° (W) 05:06:35
YUBILEINY 06 May 05:00:46 05:08:45 38° 71° (ENE) 05:16:42 435.215
CUBESAT XI-V 06 May 05:15:59 05:20:28 58° 74° (ENE) 05:25:02 437.345
ITAMSAT 1 06 May 05:20:03 05:23:18 17° 299° (WNW) 05:26:33 435.822/435.867
AIST 2 06 May 05:42:56 05:46:28 27° 246° (WSW) 05:49:59 435.215
Cosmos 2491 06 May 05:46:29 05:54:14 36° 85° (E) 06:02:01 435.465 / 435.565
HORYU 2 06 May 05:46:42 05:51:09 88° 285° (WNW) 05:55:34 437.375
SO-50 06 May 05:50:09 05:54:25 30° 114° (ESE) 05:58:42 436.795
AO-7 06 May 05:52:42 06:00:38 50° 297° (WNW) 06:08:33 29.400- 29.500
BRITE-PL 06 May 05:53:20 05:56:35 15° 87° (E) 05:59:48 437.365/2234.400
NOAA 15 06 May 06:04:46 06:09:09 25° 94° (E) 06:13:28 137.62
Cosmos 2504 06 May 06:11:56 06:18:19 27° 69° (ENE) 06:25:01 435.465 / 435.565
ISS 06 May 06:17:55 06:21:09 60° 141° (SE) 06:24:23 145.825
NOAA 18 06 May 06:17:58 06:22:40 29° 96° (E) 06:27:19 137.9125
Cubesat XI-IV 06 May 06:20:04 06:24:16 23° 94° (E) 06:28:27 437.490
STRAND 1 06 May 06:24:56 06:29:18 30° 67° (ENE) 06:33:43 437.568
GOMX 1 06 May 06:45:39 06:49:47 22° 91° (E) 06:53:45 467.674
CUBESAT XI-V 06 May 06:55:48 06:58:15 14° 270° (W) 07:00:42 437.345
YUBILEINY 06 May 06:57:29 07:05:41 48° 271° (W) 07:13:54 435.215
LilacSat-2 06 May 07:01:55 07:05:39 55° 100° (E) 07:09:21 437.200
RS-15 06 May 07:08:00 07:20:06 67° 245° (WSW) 07:32:10 29.354- 29.394
CUTE-I 06 May 07:13:37 07:18:57 72° 103° (ESE) 07:24:16 437.470
BRITE-PL 06 May 07:29:56 07:35:39 76° 285° (WNW) 07:41:10 437.365/2234.400
SO-50 06 May 07:30:14 07:34:49 38° 311° (NW) 07:39:24 436.795
M-CUBED/EXP-1 PRIME 06 May 07:37:05 07:40:14 24° 100° (E) 07:43:10 437.505
PHONESAT 2.4 06 May 07:40:01 07:40:38 10° 148° (SSE) 07:41:16 2401.200-2431.200
Cosmos 2491 06 May 07:42:14 07:50:45 51° 285° (WNW) 07:59:21 435.465 / 435.565
NOAA 15 06 May 07:44:04 07:49:03 42° 291° (WNW) 07:54:01 137.62
AO-7 06 May 07:48:43 07:51:26 12° 319° (NW) 07:54:10 29.400- 29.500
AUBIESAT-1 06 May 07:52:15 07:55:35 30° 101° (E) 07:58:43 437.475
ISS 06 May 07:55:03 07:57:49 25° 340° (NNW) 08:00:35 145.825
NOAA 18 06 May 07:58:21 08:03:23 39° 293° (WNW) 08:08:24 137.9125
Cubesat XI-IV 06 May 07:59:29 08:04:32 46° 290° (WNW) 08:09:35 437.490
DOVE 4 06 May 08:00:04 08:05:03 55° 99° (E) 08:09:43 437.250
STRAND 1 06 May 08:03:49 08:08:23 33° 263° (W) 08:13:00 437.568
Cosmos 2504 06 May 08:04:34 08:12:08 62° 267° (W) 08:20:14 435.465 / 435.565
SEEDS 06 May 08:04:36 08:06:03 11° 90° (E) 08:07:29 437.485
HO-68 06 May 08:12:24 08:18:32 30° 95° (E) 08:24:38 435.675
PRISM 06 May 08:13:05 08:17:09 71° 75° (ENE) 08:21:15 437.425
CINEMA 3 06 May 08:16:37 08:20:17 24° 93° (E) 08:23:49 145.822/145.860
GOMX 1 06 May 08:22:55 08:28:07 48° 289° (WNW) 08:33:03 467.674
AAUSAT CUBESAT 2 06 May 08:27:52 08:29:31 12° 90° (E) 08:31:10 437.432
LilacSat-2 06 May 08:38:18 08:39:29 11° 297° (WNW) 08:40:39 437.200
CUBEBUG 2 06 May 08:39:37 08:41:23 12° 89° (E) 08:43:08 437.445
CANX-2 06 May 08:45:35 08:49:45 54° 100° (E) 08:53:54 2200.000
CUTE-I 06 May 08:55:11 08:58:23 16° 300° (WNW) 09:01:35 437.470
ANTELSAT 06 May 08:58:00 08:59:18 11° 61° (ENE) 09:00:35 437.575/2403.000
BRITE-PL 06 May 09:11:00 09:13:06 12° 303° (WNW) 09:15:11 437.365/2234.400
M-CUBED/EXP-1 PRIME 06 May 09:11:39 09:14:43 23° 299° (WNW) 09:17:35 437.505
PHONESAT 2.4 06 May 09:13:59 09:16:56 37° 163° (SSE) 09:19:52 2401.200-2431.200
CUTE 1.7 + AOD 2 06 May 09:17:38 09:21:51 75° 284° (WNW) 09:26:04 437.475
Oscar 11 06 May 09:19:30 09:22:37 19° 93° (E) 09:25:42 145.826/435.025
RS-15 06 May 09:24:24 09:30:05 15° 266° (W) 09:35:47 29.354- 29.394
AUBIESAT-1 06 May 09:27:11 09:29:53 19° 300° (WNW) 09:32:28 437.475
ISS 06 May 09:33:06 09:35:07 15° 360° (N) 09:37:07 145.825
COMPASS 1 06 May 09:34:11 09:38:22 88° 111° (ESE) 09:42:33 437.405
FUNcube-1 06 May 09:36:28 09:39:49 23° 94° (E) 09:43:07 145.935
DOVE 4 06 May 09:38:47 09:42:15 19° 297° (WNW) 09:45:34 437.250
